Wind_Speed
25 26 27 27 28 28 29 30 31 31 32 33 34 34 34 35 35 35 35 36 37 37 38 38 39 40 41 41 41 41 40 40 41 42 43 44 44 44
25 26 27 27 27 28 29 29 30 31 31 32 33 34 35 35 35 35 36 36 37 37 38 38 39 39 40 40 40 40 40 41 41 42 43 44 44 44
24 25 26 26 27 27 28 28 28 29 29 30 31 32 34 34 34 34 35 36 36 36 36 38 39 39 40 40 40 41 41 41 42 43 43 44 44 44
24 24 24 25 25 26 26 27 27 27 27 27 28 29 30 32 33 33 34 34 34 35 36 36 37 38 39 40 41 40 40 41 42 43 43 44 45 45
23 24 24 24 24 25 25 26 25 26 26 26 26 27 28 30 31 32 32 32 33 34 34 35 35 36 37 38 39 39 39 40 41 42 43 44 45 45
23 24 24 23 23 23 24 24 24 24 24 25 25 26 27 28 29 30 31 31 31 32 33 34 35 36 37 37 37 38 39 40 41 41 42 44 45 45
23 23 23 23 24 24 24 24 23 24 25 25 26 26 26 28 28 28 29 30 31 32 32 33 34 35 37 37 37 37 38 39 40 40 41 42 44 45
23 23 23 23 23 23 23 23 24 24 25 25 25 26 27 27 27 27 28 29 30 32 33 33 35 34 35 36 37 38 38 38 39 39 40 40 41 43
23 22 22 22 23 23 23 23 24 24 24 25 25 25 26 26 26 27 27 28 29 31 33 33 35 35 35 35 37 37 37 37 38 38 38 39 40 42
23 23 22 23 23 23 23 23 23 23 23 24 24 24 25 25 25 26 27 28 28 30 31 32 34 35 36 36 36 36 36 36 37 38 39 39 39 40
24 24 23 23 24 24 24 24 23 23 23 23 24 24 25 25 25 26 26 26 27 28 29 30 31 33 34 35 35 35 36 36 36 37 37 38 38 39
25 24 24 25 25 25 25 24 24 23 23 22 22 23 24 24 25 25 25 25 25 26 27 29 30 31 32 33 35 35 35 36 36 36 36 36 37 37
25 25 25 26 26 26 26 25 24 23 22 22 22 22 23 23 23 24 24 25 25 26 27 28 29 30 31 31 32 33 34 34 35 35 35 36 36 37
25 26 27 27 27 27 26 26 25 24 23 22 22 23 23 24 24 24 24 24 24 25 26 26 27 28 28 29 29 30 32 32 33 33 34 35 36 37
27 27 28 28 27 27 26 26 25 23 22 22 22 23 23 23 23 23 22 22 23 23 24 24 24 24 25 26 27 29 30 31 31 32 33 34 35 35
27 27 27 27 26 26 26 25 24 23 22 22 22 22 22 21 20 21 22 22 22 23 23 22 23 23 22 22 24 27 29 30 30 31 31 32 34 35
27 27 27 26 25 25 25 24 24 23 21 21 20 20 20 20 20 21 21 21 21 21 21 22 22 22 22 22 22 23 25 27 29 30 31 31 32 32
28 28 28 27 26 25 25 24 23 23 22 21 20 20 20 21 20 20 19 19 20 20 19 20 20 21 21 21 22 23 23 24 26 27 28 29 30 30
29 29 28 27 27 26 25 24 23 23 22 21 21 21 21 20 19 19 19 18 18 18 18 19 19 19 19 19 20 21 21 22 23 24 25 27 27 28
30 30 29 28 27 27 26 25 24 23 23 22 22 21 21 20 20 19 19 18 18 18 18 18 17 17 17 16 17 17 18 19 21 22 23 24 25 26
31 31 30 29 27 27 26 25 24 24 24 23 23 22 21 20 20 19 18 18 18 18 17 16 15 15 15 15 15 16 16 17 18 20 22 23 23 24
31 32 31 29 28 26 26 26 25 25 24 24 24 23 22 20 19 18 18 17 17 16 16 15 14 14 14 14 14 15 16 16 17 19 20 21 21 22
32 32 32 30 29 27 26 26 26 25 25 24 24 23 22 20 19 18 18 17 16 15 14 15 14 14 13 13 14 14 15 15 16 17 17 18 20 21
Wind_Direction
293 292 290 287 286 284 280 277 274 272 271 269 266 264 262 262 262 263 263 262 260 259 257 255 254 254 255 254 253 252 249 248 246 245 244 244 245 245
295 294 294 291 288 286 283 281 279 276 275 272 268 265 263 262 263 263 263 262 260 259 258 256 254 254 254 254 254 252 250 248 248 245 244 244 244 245
297 296 296 293 290 287 286 284 281 279 277 275 272 269 266 264 263 262 263 263 261 260 259 257 255 254 253 253 254 252 250 248 247 246 246 245 243 243
299 299 298 296 293 290 288 286 283 281 278 274 272 270 268 266 264 264 265 264 262 261 259 258 256 255 255 253 253 251 250 248 248 248 247 246 246 245
303 302 302 298 296 293 290 289 287 283 280 277 274 272 270 269 267 266 265 264 262 261 260 259 257 256 255 253 252 252 251 250 250 249 249 247 247 246
308 307 305 301 300 296 293 292 290 286 282 280 277 275 274 272 270 269 266 264 262 261 260 259 258 257 254 253 252 252 251 251 250 250 250 249 247 246
312 312 310 306 305 303 300 297 294 290 288 285 282 278 276 274 272 270 267 263 260 259 259 259 259 258 256 254 254 252 251 250 250 251 250 249 247 245
314 313 312 312 311 310 307 303 300 295 292 289 286 281 279 277 275 271 268 266 263 260 260 260 258 258 257 255 255 254 254 253 251 251 250 250 247 245
318 316 315 315 315 314 311 307 303 300 296 292 289 287 283 280 277 274 272 269 266 263 261 261 259 259 259 258 256 256 255 254 251 250 250 250 248 247
322 322 320 317 316 315 313 312 308 304 300 296 292 290 288 284 282 278 275 271 270 268 267 264 260 260 259 258 257 257 255 254 252 252 251 249 248 247
324 324 322 320 319 316 314 313 310 307 302 297 294 292 289 286 284 281 278 274 272 270 268 266 262 259 258 257 257 257 255 254 253 252 252 250 249 248
325 323 321 321 321 319 316 312 310 307 303 299 297 294 292 289 286 284 280 277 275 271 269 267 264 261 257 256 256 255 255 254 252 251 251 250 249 249
325 323 321 320 319 319 317 314 311 308 305 301 299 297 295 292 290 288 285 281 278 274 270 268 265 264 263 259 256 255 255 254 252 251 251 249 248 247
328 326 324 322 320 320 318 316 314 310 307 304 302 302 300 298 295 292 288 284 281 278 274 272 270 268 264 260 257 254 253 252 251 249 249 248 248 247
330 329 329 328 326 324 322 319 317 315 311 307 304 303 301 300 296 293 289 286 283 280 279 278 276 272 267 261 257 254 253 251 250 248 247 247 247 248
337 337 336 333 331 330 328 326 323 320 315 311 309 307 306 305 302 298 294 290 287 283 283 283 280 276 271 267 261 256 254 252 251 249 247 246 247 248
343 342 340 338 335 334 333 332 330 327 323 320 316 314 312 310 307 303 299 294 291 287 284 283 280 277 273 270 266 261 258 254 252 250 248 247 247 248
344 342 342 341 340 339 338 336 334 331 329 327 324 320 318 316 313 309 305 300 294 290 288 286 281 276 274 273 269 266 262 257 255 251 248 247 248 249
346 345 344 343 343 342 341 340 338 336 334 330 328 326 323 322 319 315 310 303 297 294 292 289 286 281 278 273 267 266 263 259 255 250 248 247 246 247
348 347 346 346 345 344 344 342 340 338 337 334 332 329 326 324 322 319 315 310 303 298 295 292 288 283 279 273 268 266 263 259 254 251 249 249 248 248
351 350 348 347 347 346 346 345 343 340 339 337 335 333 329 324 321 319 317 314 309 302 298 294 291 287 282 278 272 268 265 261 256 251 250 249 248 247
353 353 352 350 350 349 348 347 346 345 343 341 338 335 333 329 324 322 321 318 313 307 299 295 293 289 284 278 273 268 265 262 259 256 253 250 248 247
354 354 355 353 351 350 349 349 348 348 346 344 342 340 337 333 329 326 324 322 318 312 306 300 295 290 286 279 273 269 266 264 263 261 258 255 252 250
Height
5705 5703 5701 5698 5696 5694 5692 5691 5691 5691 5691 5689 5689 5689 5689 5690 5691 5692 5692 5694 5695 5696 5698 5700 5701 5703 5705 5707 5709 5712 5714 5717 5720 5723 5727 5731 5735 5738
5698 5696 5693 5690 5688 5686 5684 5682 5681 5681 5681 5680 5678 5678 5678 5679 5680 5681 5682 5683 5684 5685 5687 5688 5690 5692 5694 5696 5698 5701 5703 5706 5709 5712 5716 5720 5724 5727
5691 5688 5685 5683 5680 5678 5675 5673 5672 5671 5671 5670 5669 5668 5668 5669 5669 5670 5671 5672 5673 5674 5675 5677 5679 5680 5683 5685 5687 5689 5692 5695 5698 5701 5705 5708 5712 5716
5685 5681 5678 5675 5672 5670 5667 5665 5664 5662 5661 5661 5660 5659 5659 5659 5659 5660 5660 5661 5662 5663 5664 5666 5667 5669 5671 5674 5676 5678 5681 5684 5687 5690 5693 5697 5701 5704
5678 5675 5671 5668 5665 5662 5660 5657 5655 5654 5653 5652 5651 5650 5650 5649 5649 5650 5650 5651 5652 5652 5654 5655 5656 5658 5660 5662 5665 5667 5670 5673 5676 5679 5681 5685 5688 5692
5672 5669 5665 5661 5658 5655 5652 5650 5647 5646 5644 5644 5643 5642 5641 5640 5640 5640 5640 5640 5641 5642 5643 5644 5646 5647 5649 5651 5654 5656 5658 5661 5664 5667 5670 5673 5676 5680
5666 5663 5659 5655 5651 5648 5646 5643 5640 5639 5637 5635 5634 5633 5632 5632 5631 5631 5631 5631 5632 5632 5633 5634 5635 5637 5638 5640 5642 5645 5647 5650 5652 5655 5658 5660 5664 5667
5661 5657 5654 5649 5646 5643 5639 5636 5633 5631 5629 5627 5626 5625 5624 5623 5622 5622 5621 5622 5623 5623 5623 5624 5625 5626 5627 5629 5631 5634 5636 5638 5640 5643 5646 5648 5651 5655
5656 5652 5649 5644 5641 5637 5634 5630 5627 5624 5621 5619 5618 5616 5615 5614 5613 5613 5612 5612 5612 5612 5613 5614 5615 5616 5617 5618 5620 5622 5624 5626 5629 5631 5634 5636 5639 5642
5652 5647 5643 5639 5635 5632 5628 5624 5621 5617 5614 5612 5610 5608 5606 5605 5604 5603 5603 5603 5603 5602 5602 5604 5604 5605 5606 5607 5609 5610 5613 5615 5617 5619 5622 5625 5627 5630
5647 5642 5638 5634 5630 5626 5622 5618 5615 5611 5608 5605 5603 5600 5598 5597 5595 5594 5593 5593 5593 5593 5592 5593 5594 5594 5595 5596 5597 5599 5601 5603 5606 5608 5611 5613 5616 5619
5642 5638 5633 5628 5624 5619 5615 5612 5608 5605 5601 5598 5595 5593 5591 5589 5587 5585 5584 5584 5583 5584 5583 5583 5583 5583 5585 5586 5587 5588 5589 5592 5594 5597 5599 5602 5605 5607
5637 5633 5628 5623 5618 5613 5609 5605 5601 5598 5594 5591 5588 5586 5583 5581 5579 5577 5576 5575 5574 5574 5573 5573 5573 5573 5573 5575 5576 5577 5578 5580 5583 5585 5588 5591 5594 5597
5632 5627 5622 5617 5612 5607 5602 5598 5594 5590 5587 5584 5581 5579 5576 5574 5571 5569 5567 5566 5565 5565 5564 5563 5563 5563 5563 5564 5565 5566 5568 5569 5572 5575 5577 5580 5583 5586
5627 5622 5616 5611 5605 5601 5596 5591 5587 5583 5580 5577 5574 5572 5569 5566 5564 5562 5560 5558 5557 5556 5555 5554 5554 5553 5553 5554 5555 5556 5558 5559 5561 5564 5567 5569 5572 5575
5622 5617 5611 5605 5600 5595 5590 5585 5581 5577 5573 5570 5568 5565 5562 5559 5557 5554 5552 5551 5549 5548 5547 5546 5545 5544 5544 5544 5545 5546 5548 5549 5551 5554 5556 5559 5561 5564
5619 5613 5607 5601 5596 5591 5586 5581 5576 5572 5568 5565 5561 5558 5555 5552 5550 5547 5545 5543 5542 5540 5539 5538 5537 5537 5536 5536 5537 5537 5538 5540 5542 5543 5546 5549 5551 5553
5616 5610 5604 5598 5593 5587 5582 5577 5572 5568 5564 5560 5556 5553 5549 5546 5543 5540 5538 5536 5534 5533 5532 5531 5530 5529 5529 5529 5529 5529 5530 5531 5533 5534 5537 5539 5542 5544
5613 5607 5601 5595 5589 5584 5579 5574 5569 5564 5560 5556 5552 5548 5544 5540 5537 5534 5532 5530 5528 5526 5525 5523 5522 5521 5521 5521 5521 5521 5522 5523 5524 5526 5528 5530 5533 5535
5610 5604 5598 5592 5586 5581 5575 5570 5565 5560 5556 5552 5547 5543 5539 5535 5532 5529 5526 5524 5521 5520 5518 5517 5515 5515 5514 5514 5514 5515 5515 5516 5517 5518 5520 5522 5524 5527
5608 5602 5595 5589 5583 5578 5572 5567 5562 5557 5552 5548 5543 5539 5535 5531 5527 5524 5521 5518 5515 5513 5512 5510 5509 5508 5508 5508 5508 5509 5509 5509 5510 5511 5513 5515 5517 5519
5606 5599 5593 5586 5581 5575 5570 5564 5559 5554 5549 5544 5539 5535 5530 5526 5523 5519 5516 5513 5510 5508 5506 5505 5504 5503 5502 5502 5502 5502 5503 5503 5504 5504 5506 5507 5509 5511
5604 5598 5591 5584 5578 5573 5567 5562 5556 5551 5546 5541 5536 5531 5526 5522 5519 5515 5511 5508 5505 5503 5501 5500 5498 5497 5497 5496 5496 5496 5497 5497 5498 5498 5500 5500 5502 5504